Location: Unspecified
(0.0000°N, 0.0000°E)
Time: 14:29:13
(UTC+00:00)

Amateur Radio Satellites - All Passes

Search period start: 02 October 2014 13:59
Search period end: 03 October 2014 13:59
Location: Unspecified, 0.0000°N, 0.0000°E

Satellite Date Start Highest point End Downlink Frequencies (MHz)
Time Altitude Azimuth
AO-Echo 02 Oct 14:10:56 14:15:26 41° 258° (WSW) 14:19:50 ?
Oscar 16 02 Oct 14:12:17 14:15:46 18° 257° (WSW) 14:19:15 437.025 USB, Beacon 2401.1428
AO-27 02 Oct 14:23:05 14:27:54 40° 257° (WSW) 14:32:43 436.795 MHz FM
KITSAT 1 02 Oct 14:34:01 14:41:59 62° 110° (ESE) 14:49:55 435.175 FM
JAS-1B 02 Oct 14:34:33 14:42:35 35° 253° (WSW) 14:49:36 435.800 - 435.900 CW/SSB
AO-7 02 Oct 14:46:23 14:52:14 21° 73° (ENE) 14:58:02 29.400 - 29.500 MHz
Gurwin Techsat 1B 02 Oct 14:54:51 14:59:52 43° 257° (WSW) 15:04:52 435.225 FM
PANSAT 02 Oct 15:04:04 15:07:23 27° 330° (NNW) 15:10:42 not established
TMSAT-1 02 Oct 15:23:05 15:27:39 30° 257° (WSW) 15:32:12 436.925 FM
Uosat F 02 Oct 15:33:14 15:37:46 35° 77° (ENE) 15:42:16 435.120 FM
OPAL 02 Oct 16:07:50 16:12:27 39° 104° (ESE) 16:17:01 ?
KITSAT 1 02 Oct 16:32:43 16:37:06 16° 291° (WNW) 16:41:31 435.175 FM
AO-7 02 Oct 16:36:40 16:44:38 50° 254° (WSW) 16:52:34 29.400 - 29.500 MHz
SO-50 02 Oct 16:42:48 16:47:11 75° 112° (ESE) 16:51:35 436.795 FM
Hamsat 02 Oct 17:06:07 17:10:09 37° 79° (ENE) 17:14:08 145.90 MHz
Uosat F 02 Oct 17:14:05 17:16:15 13° 257° (WSW) 17:18:26 435.120 FM
JAS-2 02 Oct 17:26:12 17:31:36 86° 78° (ENE) 17:36:45 435.800 - 435.900 CW/SSB, 435.910 FM
ISS 02 Oct 17:30:08 17:32:18 16° 126° (SE) 17:34:28 145.800 FM
AO-40 02 Oct 17:38:37 22:29:33 84° 184° (S) 05:05:19 Beacon 2401.320
OPAL 02 Oct 17:49:24 17:51:02 12° 285° (WNW) 17:52:40 ?
Sapphire 02 Oct 18:11:54 18:14:58 15° 70° (ENE) 18:18:01 437.095 MHz 1200 baud AX-25 AFSK
SO-67 02 Oct 18:19:34 18:22:34 28° 79° (E) 18:25:33 435.3500 MHz FM
PCSat 02 Oct 18:35:35 18:40:23 33° 71° (ENE) 18:45:11 145.825 MHz
UOSAT-12 02 Oct 18:42:34 18:47:01 69° 292° (WNW) 18:51:33 437.025 FM, 437.400 FM
STRAND 1 02 Oct 18:50:08 18:55:07 52° 283° (WNW) 19:00:08 ?
ISS 02 Oct 19:06:44 19:08:47 15° 306° (NW) 19:10:51 145.800 FM
HO-68 02 Oct 19:25:38 19:29:31 16° 75° (ENE) 19:33:23 435.675 MHz FM
Sapphire 02 Oct 19:53:15 19:58:07 35° 251° (WSW) 20:02:59 437.095 MHz 1200 baud AX-25 AFSK
PCSat 02 Oct 20:20:18 20:23:31 16° 250° (WSW) 20:26:45 145.825 MHz
Oscar 11 02 Oct 21:04:34 21:08:44 44° 78° (ENE) 21:12:52 145.825 FM, Beacon 2401.500 USB
HO-68 02 Oct 21:09:57 21:16:52 55° 255° (WSW) 21:23:47 435.675 MHz FM
FUNcube-1 02 Oct 21:33:04 21:37:05 35° 78° (ENE) 21:41:10 145.950 - 145.970 MHz USB
Oscar 10/S400 02 Oct 21:34:28 00:34:48 81° 126° (SE) 08:28:43 145.825 - 145.975 CW/USB, Beacon 145.810 USB
UKube-1 02 Oct 21:35:36 21:39:45 45° 258° (WSW) 21:43:52 145.840 MHz, 145.915 MHz
ZACube-1 02 Oct 22:18:20 22:22:35 50° 259° (WSW) 22:26:56 437.345 MHz
RS-15 02 Oct 23:21:50 23:32:44 48° 111° (ESE) 23:43:08 29.354 - 29.394 USB, Beacon 29.352 USB
Saudisat 1A 02 Oct 23:35:53 23:40:16 73° 248° (WSW) 23:44:39 436.775 MHz
Oscar 19 03 Oct 00:25:26 00:29:13 21° 103° (ESE) 00:33:00 437.125 CW, 437.150 USB
Uribyol 2 03 Oct 00:43:44 00:45:26 12° 103° (ESE) 00:47:08 436.500 FM
ITAMSAT 1 03 Oct 00:44:13 00:45:01 10° 103° (ESE) 00:45:49 435.822 SSB
JAS-1B 03 Oct 00:52:54 00:58:37 32° 107° (ESE) 01:05:12 435.800 - 435.900 CW/SSB
AO-Echo 03 Oct 01:01:36 01:05:54 26° 103° (ESE) 01:10:15 ?
Oscar 16 03 Oct 01:05:28 01:10:33 72° 102° (ESE) 01:15:39 437.025 USB, Beacon 2401.1428
PANSAT 03 Oct 01:11:00 01:14:37 40° 30° (NNE) 01:18:15 not established
AO-27 03 Oct 01:19:14 01:23:52 33° 103° (ESE) 01:28:31 436.795 MHz FM
RS-15 03 Oct 01:35:19 01:44:36 30° 291° (WNW) 01:53:41 29.354 - 29.394 USB, Beacon 29.352 USB
Gurwin Techsat 1B 03 Oct 01:53:53 01:58:39 34° 103° (ESE) 02:03:25 435.225 FM
Oscar 19 03 Oct 02:04:20 02:08:17 23° 283° (WNW) 02:12:14 437.125 CW, 437.150 USB
ITAMSAT 1 03 Oct 02:19:14 02:24:12 46° 283° (WNW) 02:29:12 435.822 SSB
MaSat-1 03 Oct 02:19:27 02:21:52 14° 106° (ESE) 02:24:19 437.345 MHz
Uribyol 2 03 Oct 02:19:44 02:24:37 42° 283° (WNW) 02:29:31 436.500 FM
TMSAT-1 03 Oct 02:21:01 02:26:06 49° 102° (ESE) 02:31:13 436.925 FM
AO-Echo 03 Oct 02:40:36 02:44:23 20° 282° (WNW) 02:48:13 ?
KITSAT 1 03 Oct 02:41:53 02:49:56 80° 70° (ENE) 02:58:00 435.175 FM
JAS-1B 03 Oct 02:43:53 02:48:59 25° 280° (W) 02:54:49 435.800 - 435.900 CW/SSB
PANSAT 03 Oct 02:51:29 02:54:43 26° 209° (SSW) 02:57:58 not established
AO-27 03 Oct 03:00:08 03:03:06 15° 283° (WNW) 03:06:04 436.795 MHz FM
AO-7 03 Oct 03:11:05 03:18:27 36° 106° (ESE) 03:25:49 29.400 - 29.500 MHz
Gurwin Techsat 1B 03 Oct 03:35:24 03:38:20 15° 283° (WNW) 03:41:17 435.225 FM
MaSat-1 03 Oct 03:53:50 03:58:00 31° 287° (WNW) 04:02:17 437.345 MHz
Uosat F 03 Oct 04:02:24 04:07:26 85° 103° (ESE) 04:12:30 435.120 FM
OPAL 03 Oct 04:38:57 04:44:08 84° 256° (WSW) 04:49:21 ?
KITSAT 1 03 Oct 04:43:21 04:45:08 11° 248° (WSW) 04:46:56 435.175 FM
SO-50 03 Oct 04:55:47 05:00:33 57° 248° (WSW) 05:05:18 436.795 FM
JAS-2 03 Oct 04:56:09 05:03:28 52° 103° (ESE) 05:11:02 435.800 - 435.900 CW/SSB, 435.910 FM
AO-7 03 Oct 05:03:53 05:10:51 31° 286° (WNW) 05:17:54 29.400 - 29.500 MHz
ISS 03 Oct 05:06:58 05:07:42 11° 54° (NE) 05:08:26 145.800 FM
Hamsat 03 Oct 05:13:15 05:17:14 45° 101° (ESE) 05:21:15 145.90 MHz
STRAND 1 03 Oct 05:45:00 05:49:00 24° 77° (ENE) 05:52:59 ?
SO-67 03 Oct 06:04:46 06:06:54 16° 101° (E) 06:09:02 435.3500 MHz FM
ISS 03 Oct 06:41:29 06:44:11 23° 234° (SW) 06:46:54 145.800 FM
JAS-2 03 Oct 06:42:56 06:48:08 20° 283° (WNW) 06:53:31 435.800 - 435.900 CW/SSB, 435.910 FM
Sapphire 03 Oct 06:46:12 06:51:22 48° 109° (ESE) 06:56:31 437.095 MHz 1200 baud AX-25 AFSK
UOSAT-12 03 Oct 06:53:14 06:57:28 38° 248° (WSW) 07:01:39 437.025 FM, 437.400 FM
PCSat 03 Oct 07:11:18 07:16:41 78° 289° (WNW) 07:22:04 145.825 MHz
HO-68 03 Oct 07:18:19 07:21:05 13° 106° (ESE) 07:23:50 435.675 MHz FM
STRAND 1 03 Oct 07:24:14 07:27:55 20° 257° (WSW) 07:31:36 ?
SO-67 03 Oct 07:38:26 07:39:38 12° 281° (W) 07:40:50 435.3500 MHz FM
Sapphire 03 Oct 08:33:28 08:34:32 11° 290° (WNW) 08:35:37 437.095 MHz 1200 baud AX-25 AFSK
HO-68 03 Oct 09:01:18 09:08:23 65° 284° (WNW) 09:15:30 435.675 MHz FM
Oscar 11 03 Oct 09:13:37 09:17:51 60° 102° (ESE) 09:22:05 145.825 FM, Beacon 2401.500 USB
FUNcube-1 03 Oct 09:43:50 09:48:02 49° 101° (ESE) 09:52:09 145.950 - 145.970 MHz USB
UKube-1 03 Oct 09:45:29 09:49:24 33° 282° (WNW) 09:53:20 145.840 MHz, 145.915 MHz
ZACube-1 03 Oct 10:29:45 10:33:41 33° 282° (WNW) 10:37:32 437.345 MHz
RS-15 03 Oct 11:03:09 11:13:39 40° 70° (ENE) 11:24:29 29.354 - 29.394 USB, Beacon 29.352 USB
Saudisat 1A 03 Oct 11:42:11 11:46:22 45° 292° (WNW) 11:50:33 436.775 MHz
Oscar 16 03 Oct 12:04:04 12:05:26 11° 77° (ENE) 12:06:48 437.025 USB, Beacon 2401.1428
AO-40 03 Oct 12:29:21 12:34:47 82° 9° (N) 12:45:04 Beacon 2401.320
Oscar 19 03 Oct 12:57:58 13:03:04 56° 78° (ENE) 13:08:07 437.125 CW, 437.150 USB
PANSAT 03 Oct 12:58:18 13:01:59 43° 150° (SSE) 13:05:40 not established
KITSAT 1 03 Oct 13:01:28 13:02:47 10° 112° (ESE) 13:04:05 435.175 FM
JAS-1B 03 Oct 13:03:02 13:11:31 47° 78° (ENE) 13:18:40 435.800 - 435.900 CW/SSB
RS-15 03 Oct 13:15:14 13:25:38 38° 248° (WSW) 13:36:31 29.354 - 29.394 USB, Beacon 29.352 USB
ITAMSAT 1 03 Oct 13:15:43 13:20:07 29° 77° (ENE) 13:24:30 435.822 SSB
Uribyol 2 03 Oct 13:15:51 13:20:23 31° 77° (ENE) 13:24:54 436.500 FM
AO-Echo 03 Oct 13:30:45 13:35:25 56° 78° (ENE) 13:39:59 ?
Oscar 16 03 Oct 13:39:35 13:44:30 43° 257° (WSW) 13:49:24 437.025 USB, Beacon 2401.1428
